TimeEDT,TemperatureF,Dew PointF,Humidity,Sea Level PressureIn,VisibilityMPH,Wind Direction,Wind SpeedMPH,Gust SpeedMPH,PrecipitationIn,Events,Conditions,WindDirDegrees,DateUTC
12:53 AM,69.1,66.9,93,30.13,8.0,Calm,Calm,-,N/A,,Clear,0,2013-08-27 04:53:00
1:53 AM,68.0,66.0,93,30.12,6.0,Calm,Calm,-,N/A,,Clear,0,2013-08-27 05:53:00
2:53 AM,68.0,66.0,93,30.11,7.0,Calm,Calm,-,N/A,,Clear,0,2013-08-27 06:53:00
3:53 AM,66.9,64.9,93,30.11,8.0,Calm,Calm,-,N/A,,Clear,0,2013-08-27 07:53:00
4:53 AM,66.9,64.9,93,30.10,7.0,Calm,Calm,-,N/A,,Clear,0,2013-08-27 08:53:00
5:53 AM,66.9,64.9,93,30.11,8.0,Calm,Calm,-,N/A,,Clear,0,2013-08-27 09:53:00
6:53 AM,66.0,64.9,96,30.12,6.0,Calm,Calm,-,N/A,,Partly Cloudy,0,2013-08-27 10:53:00
7:28 AM,66.2,64.4,94,30.16,5.0,Calm,Calm,-,N/A,,Mostly Cloudy,0,2013-08-27 11:28:00
7:35 AM,66.2,64.4,94,30.16,5.0,Calm,Calm,-,N/A,,Scattered Clouds,0,2013-08-27 11:35:00
7:53 AM,66.9,64.9,93,30.12,6.0,Calm,Calm,-,N/A,,Partly Cloudy,0,2013-08-27 11:53:00
8:53 AM,69.1,66.9,93,30.12,7.0,Calm,Calm,-,N/A,,Clear,0,2013-08-27 12:53:00
9:53 AM,73.0,68.0,84,30.12,9.0,Calm,Calm,-,N/A,,Clear,0,2013-08-27 13:53:00
10:53 AM,75.9,69.1,79,30.12,9.0,Calm,Calm,-,N/A,,Partly Cloudy,0,2013-08-27 14:53:00
11:40 AM,78.8,69.8,74,30.16,9.0,Calm,Calm,-,N/A,,Mostly Cloudy,0,2013-08-27 15:40:00
11:51 AM,78.8,69.8,74,30.16,9.0,Variable,4.6,-,N/A,,Mostly Cloudy,0,2013-08-27 15:51:00
11:53 AM,79.0,70.0,74,30.12,9.0,West,4.6,-,N/A,,Mostly Cloudy,280,2013-08-27 15:53:00
12:53 PM,80.1,71.1,74,30.11,9.0,NW,4.6,-,N/A,,Mostly Cloudy,320,2013-08-27 16:53:00
1:13 PM,80.6,69.8,70,30.14,9.0,WNW,5.8,-,N/A,,Scattered Clouds,300,2013-08-27 17:13:00
1:53 PM,82.0,71.1,69,30.09,9.0,Variable,4.6,-,N/A,,Scattered Clouds,0,2013-08-27 17:53:00
2:53 PM,84.0,70.0,63,30.06,10.0,NW,3.5,-,N/A,,Clear,310,2013-08-27 18:53:00
3:53 PM,82.9,69.1,63,30.04,10.0,Calm,Calm,-,N/A,,Clear,0,2013-08-27 19:53:00
4:53 PM,84.0,71.1,65,30.03,10.0,Calm,Calm,-,N/A,,Partly Cloudy,0,2013-08-27 20:53:00
5:53 PM,82.0,71.1,69,30.03,10.0,Calm,Calm,-,N/A,,Clear,0,2013-08-27 21:53:00
6:53 PM,79.0,70.0,74,30.02,9.0,Calm,Calm,-,N/A,,Clear,0,2013-08-27 22:53:00
7:53 PM,78.1,70.0,76,30.03,9.0,Calm,Calm,-,N/A,,Clear,0,2013-08-27 23:53:00
8:53 PM,75.9,70.0,82,30.04,9.0,Calm,Calm,-,N/A,,Clear,0,2013-08-28 00:53:00
9:53 PM,75.0,71.1,87,30.04,8.0,Calm,Calm,-,N/A,,Clear,0,2013-08-28 01:53:00
10:53 PM,73.9,71.1,91,30.04,7.0,Calm,Calm,-,N/A,,Clear,0,2013-08-28 02:53:00
11:53 PM,73.9,71.1,91,30.04,6.0,Calm,Calm,-,N/A,,Clear,0,2013-08-28 03:53:00